When you browse on this site, cookies collect data to enhance your experience and personalize the content and advertising you see.
Visit our Privacy Policy to learn more. By continuing to use the site, you agree to this use of cookies and data.
  • In Hungary
  • List of Countries
  • For 7 days
  • Water Temperature
  • Weather Map
  • News
  • Weather Widgets
  • user-avatar
    Login

    Hourly Weather Efremovskiy

    Today, 23 October, Wednesday

    Time Temperature Precipitation Wind Pressure Humidity
    00:00 +15°C° 0 mm 0 mps 764 mmHg 57%
    01:00 +16°C° 0 mm 1 mps 764 mmHg 59%
    02:00 +15°C° 0 mm 1 mps 764 mmHg 60%
    03:00 +14°C° 0 mm 1 mps 764 mmHg 61%
    04:00 +14°C° 0 mm 1 mps 764 mmHg 62%
    05:00 +14°C° 0 mm 1 mps 764 mmHg 63%
    06:00 +14°C° 0 mm 1 mps 764 mmHg 64%
    07:00 +14°C° 0 mm 1 mps 764 mmHg 61%
    08:00 +15°C° 0 mm 1 mps 764 mmHg 58%
    09:00 +16°C° 0 mm 1 mps 765 mmHg 56%
    10:00 +18°C° 0 mm 1 mps 764 mmHg 52%
    11:00 +19°C° 0 mm 1 mps 764 mmHg 49%
    12:00 +21°C° 0 mm 1 mps 764 mmHg 45%
    13:00 +21°C° 0 mm 1 mps 764 mmHg 44%
    14:00 +21°C° 0 mm 1 mps 764 mmHg 42%
    15:00 +22°C° 0 mm 1 mps 763 mmHg 41%
    16:00 +21°C° 0 mm 1 mps 763 mmHg 44%
    17:00 +20°C° 0 mm 1 mps 763 mmHg 46%
    18:00 +19°C° 0 mm 1 mps 763 mmHg 49%
    19:00 +19°C° 0 mm 1 mps 763 mmHg 51%
    20:00 +18°C° 0 mm 1 mps 763 mmHg 53%
    21:00 +18°C° 0 mm 1 mps 763 mmHg 54%
    22:00 +16°C° 0 mm 1 mps 763 mmHg 56%
    23:00 +16°C° 0 mm 1 mps 763 mmHg 57%

    Tomorrow, 24 October, Thursday

    Time Temperature Precipitation Wind Pressure Humidity
    00:00 +16°C° 0 mm 1 mps 763 mmHg 58%
    01:00 +15°C° 0 mm 1 mps 763 mmHg 59%
    02:00 +15°C° 0 mm 1 mps 763 mmHg 60%
    03:00 +15°C° 0 mm 1 mps 763 mmHg 61%
    04:00 +15°C° 0 mm 1 mps 762 mmHg 62%
    05:00 +13°C° 0 mm 0 mps 762 mmHg 62%
    06:00 +13°C° 0 mm 0 mps 762 mmHg 63%
    07:00 +14°C° 0 mm 0 mps 762 mmHg 61%
    08:00 +15°C° 0 mm 0 mps 762 mmHg 58%
    09:00 +15°C° 0 mm 0 mps 762 mmHg 56%
    10:00 +19°C° 0 mm 1 mps 762 mmHg 52%
    11:00 +20°C° 0 mm 1 mps 762 mmHg 48%
    12:00 +20°C° 0 mm 2 mps 762 mmHg 44%
    13:00 +20°C° 0 mm 2 mps 762 mmHg 43%
    14:00 +20°C° 0 mm 2 mps 762 mmHg 42%
    15:00 +21°C° 0 mm 2 mps 761 mmHg 41%
    16:00 +20°C° 0 mm 2 mps 761 mmHg 45%
    17:00 +18°C° 0 mm 2 mps 761 mmHg 48%
    18:00 +17°C° 0 mm 2 mps 761 mmHg 52%
    19:00 +18°C° 0 mm 1 mps 761 mmHg 53%
    20:00 +16°C° 0 mm 1 mps 761 mmHg 55%
    21:00 +16°C° 0 mm 1 mps 761 mmHg 56%
    22:00 +16°C° 0 mm 1 mps 761 mmHg 56%
    23:00 +15°C° 0 mm 1 mps 761 mmHg 57%

    Day after tomorrow, 25 October, Friday

    Time Temperature Precipitation Wind Pressure Humidity
    00:00 +15°C° 0 mm 1 mps 761 mmHg 57%
    01:00 +15°C° 0 mm 1 mps 761 mmHg 58%
    02:00 +15°C° 0 mm 1 mps 761 mmHg 59%
    03:00 +14°C° 0 mm 1 mps 761 mmHg 60%
    04:00 +14°C° 0 mm 1 mps 760 mmHg 61%
    05:00 +13°C° 0 mm 1 mps 760 mmHg 62%
    06:00 +13°C° 0 mm 1 mps 760 mmHg 63%
    07:00 +14°C° 0 mm 1 mps 761 mmHg 61%
    08:00 +15°C° 0 mm 1 mps 761 mmHg 59%
    09:00 +16°C° 0 mm 2 mps 761 mmHg 56%
    10:00 +17°C° 0 mm 2 mps 761 mmHg 52%
    11:00 +18°C° 0 mm 2 mps 761 mmHg 48%
    12:00 +20°C° 0 mm 2 mps 761 mmHg 43%
    13:00 +20°C° 0 mm 2 mps 761 mmHg 41%
    14:00 +21°C° 0 mm 2 mps 760 mmHg 39%
    15:00 +21°C° 0 mm 2 mps 760 mmHg 37%
    16:00 +20°C° 0 mm 2 mps 760 mmHg 40%
    17:00 +19°C° 0 mm 2 mps 760 mmHg 44%
    18:00 +18°C° 0 mm 2 mps 761 mmHg 47%
    19:00 +17°C° 0 mm 2 mps 761 mmHg 50%
    20:00 +16°C° 0 mm 2 mps 761 mmHg 52%
    21:00 +16°C° 0 mm 3 mps 761 mmHg 55%
    22:00 +14°C° 0 mm 3 mps 761 mmHg 58%
    23:00 +14°C° 0 mm 3 mps 761 mmHg 61%

    26 October, Saturday

    Time Temperature Precipitation Wind Pressure Humidity
    00:00 +13°C° 0 mm 3 mps 761 mmHg 64%
    01:00 +13°C° 0 mm 3 mps 761 mmHg 66%
    02:00 +12°C° 0 mm 3 mps 761 mmHg 67%
    03:00 +12°C° 0 mm 3 mps 761 mmHg 68%
    04:00 +11°C° 0 mm 3 mps 762 mmHg 69%
    05:00 +11°C° 0 mm 3 mps 762 mmHg 69%
    06:00 +11°C° 0 mm 3 mps 762 mmHg 69%
    07:00 +12°C° 0 mm 3 mps 762 mmHg 65%
    08:00 +12°C° 0 mm 4 mps 762 mmHg 61%
    09:00 +13°C° 0 mm 4 mps 762 mmHg 56%
    10:00 +15°C° 0 mm 4 mps 762 mmHg 51%
    11:00 +18°C° 0 mm 4 mps 763 mmHg 46%
    12:00 +19°C° 0 mm 4 mps 763 mmHg 41%
    13:00 +20°C° 0 mm 4 mps 762 mmHg 39%
    14:00 +20°C° 0 mm 3 mps 762 mmHg 37%
    15:00 +20°C° 0 mm 3 mps 762 mmHg 36%
    16:00 +19°C° 0 mm 3 mps 762 mmHg 39%
    17:00 +18°C° 0 mm 3 mps 762 mmHg 42%
    18:00 +17°C° 0 mm 2 mps 762 mmHg 46%
    19:00 +16°C° 0 mm 2 mps 762 mmHg 48%
    20:00 +16°C° 0 mm 2 mps 763 mmHg 50%
    21:00 +15°C° 0 mm 2 mps 763 mmHg 51%
    22:00 +15°C° 0 mm 2 mps 763 mmHg 52%
    23:00 +14°C° 0 mm 2 mps 763 mmHg 53%

    27 October, Sunday

    Time Temperature Precipitation Wind Pressure Humidity
    00:00 +14°C° 0 mm 2 mps 763 mmHg 55%
    01:00 +14°C° 0 mm 2 mps 763 mmHg 56%
    02:00 +13°C° 0 mm 1 mps 763 mmHg 57%
    03:00 +13°C° 0 mm 1 mps 762 mmHg 58%
    04:00 +13°C° 0 mm 1 mps 762 mmHg 59%
    05:00 +12°C° 0 mm 1 mps 762 mmHg 61%
    06:00 +12°C° 0 mm 1 mps 762 mmHg 63%
    07:00 +13°C° 0 mm 1 mps 762 mmHg 62%
    08:00 +14°C° 0 mm 1 mps 762 mmHg 61%
    09:00 +15°C° 0 mm 1 mps 762 mmHg 59%
    10:00 +16°C° 0 mm 1 mps 762 mmHg 58%
    11:00 +17°C° 0 mm 2 mps 762 mmHg 56%
    12:00 +19°C° 0 mm 2 mps 762 mmHg 54%
    13:00 +19°C° 0 mm 2 mps 762 mmHg 52%
    14:00 +20°C° 0 mm 2 mps 761 mmHg 51%
    15:00 +20°C° 0 mm 2 mps 761 mmHg 49%
    16:00 +20°C° 0 mm 1 mps 760 mmHg 53%
    17:00 +19°C° 0 mm 1 mps 760 mmHg 58%
    18:00 +18°C° 0 mm 1 mps 760 mmHg 62%
    19:00 +16°C° 0 mm 1 mps 760 mmHg 64%
    20:00 +16°C° 0 mm 1 mps 760 mmHg 66%
    21:00 +15°C° 0 mm 1 mps 760 mmHg 68%
    22:00 +15°C° 0 mm 1 mps 760 mmHg 69%
    23:00 +15°C° 0 mm 1 mps 759 mmHg 70%

    28 October, Monday

    Time Temperature Precipitation Wind Pressure Humidity
    00:00 +14°C° 0 mm 1 mps 759 mmHg 72%
    01:00 +13°C° 0 mm 0 mps 759 mmHg 73%
    02:00 +13°C° 0 mm 0 mps 759 mmHg 74%
    03:00 +13°C° 0 mm 0 mps 759 mmHg 75%
    04:00 +12°C° 0 mm 0 mps 758 mmHg 77%
    05:00 +12°C° 0 mm 0 mps 758 mmHg 78%
    06:00 +12°C° 0 mm 0 mps 758 mmHg 80%
    07:00 +12°C° 0 mm 0 mps 758 mmHg 76%
    08:00 +13°C° 0 mm 0 mps 758 mmHg 72%
    09:00 +14°C° 0 mm 0 mps 758 mmHg 68%
    10:00 +18°C° 0 mm 1 mps 758 mmHg 62%
    11:00 +19°C° 0 mm 1 mps 758 mmHg 56%
    12:00 +19°C° 0 mm 2 mps 758 mmHg 51%
    13:00 +20°C° 0 mm 2 mps 757 mmHg 48%
    14:00 +20°C° 0 mm 3 mps 757 mmHg 46%
    15:00 +21°C° 0 mm 3 mps 757 mmHg 44%
    16:00 +19°C° 0 mm 3 mps 756 mmHg 49%
    17:00 +18°C° 0 mm 3 mps 756 mmHg 54%
    18:00 +16°C° 0 mm 3 mps 756 mmHg 60%
    19:00 +16°C° 0 mm 3 mps 756 mmHg 62%
    20:00 +14°C° 0 mm 3 mps 756 mmHg 64%
    21:00 +13°C° 0 mm 3 mps 756 mmHg 67%
    22:00 +13°C° 0 mm 3 mps 756 mmHg 67%
    23:00 +14°C° 0 mm 2 mps 756 mmHg 68%

    29 October, Tuesday

    Time Temperature Precipitation Wind Pressure Humidity
    00:00 +14°C° 0 mm 2 mps 756 mmHg 68%
    01:00 +14°C° 0 mm 2 mps 756 mmHg 69%
    02:00 +12°C° 0 mm 3 mps 756 mmHg 70%
    03:00 +12°C° 0 mm 3 mps 755 mmHg 71%
    04:00 +12°C° 0 mm 3 mps 755 mmHg 72%
    05:00 +12°C° 0 mm 3 mps 755 mmHg 74%
    06:00 +11°C° 0 mm 3 mps 755 mmHg 76%
    07:00 +12°C° 0 mm 3 mps 755 mmHg 73%
    08:00 +13°C° 0 mm 4 mps 755 mmHg 70%
    09:00 +13°C° 0 mm 4 mps 755 mmHg 67%
    10:00 +15°C° 0 mm 4 mps 755 mmHg 63%
    11:00 +16°C° 0 mm 5 mps 755 mmHg 60%
    12:00 +17°C° 0 mm 5 mps 755 mmHg 56%
    13:00 +17°C° 0 mm 6 mps 755 mmHg 59%
    14:00 +17°C° 0 mm 6 mps 755 mmHg 62%
    15:00 +17°C° 0 mm 6 mps 755 mmHg 65%
    16:00 +16°C° 0 mm 5 mps 755 mmHg 68%
    17:00 +15°C° 0 mm 4 mps 755 mmHg 71%
    18:00 +15°C° 0 mm 4 mps 755 mmHg 74%
    19:00 +14°C° 0 mm 4 mps 755 mmHg 74%
    20:00 +13°C° 0 mm 3 mps 756 mmHg 75%
    21:00 +13°C° 0 mm 3 mps 756 mmHg 75%
    22:00 +12°C° 0 mm 4 mps 756 mmHg 72%
    23:00 +12°C° 0 mm 4 mps 756 mmHg 68%
    Show more